User: anonymous   Login
Location: Terra Rouge Observatory
(46.0000°N, 62.7500°W)
Time: 03:50:46
(UTC-04:00)
Language:

Landsat 5 - Orbit

View from above orbital plane
View from above orbital plane
View from above satellite
View from above satellite

Ground track
Ground track

The orbit data is extracted from the following two-line orbital elements,

1 14780U 84021A   16342.50138715  .00000472  00000-0  49674-4 0  9998
2 14780  98.0309  84.9258 0092562  80.6630 280.5039 14.91344333747307
Epoch (UTC): 07 December 2016 12:01:59
Eccentricity: 0.0092562
inclination: 98.0309°
perigee height: 529 km
apogee height: 658 km
right ascension of ascending node: 84.9258°
argument of perigee: 80.6630°
revolutions per day: 14.91344333
mean anomaly at epoch: 280.5039°
orbit number at epoch: 74730

The dashed part of the orbit path shows where the satellite is in the earth's shadow,  

DLR